This is the latest recevied weather packets stored in our database for station/object K8GLX. If no packets are shown the sender has not sent any weather packets the latest 10 day(s).
| Time | Temp. | Humidity | Pressure | Rain* | Wind** | Luminosity | Snow |
|---|---|---|---|---|---|---|---|
| 1777480033 | 9.44° C | 97% | 1009.6 hPa | 1.02 mm | - | 76 W/m² | - |
| 1777479738 | 9.44° C | 97% | 1009.8 hPa | 1.02 mm | - | 55 W/m² | - |
| 1777479433 | 9.44° C | 97% | 1010.1 hPa | 0.51 mm | - | 40 W/m² | - |
| 1777479138 | 9.44° C | 97% | 1009.9 hPa | 0.25 mm | - | 35 W/m² | - |
| 1777478833 | 10° C | 97% | 1009.7 hPa | 0 mm | - | 34 W/m² | - |
| 1777478538 | 10.56° C | 96% | 1009.6 hPa | 0 mm | - | 29 W/m² | - |
| 1777478233 | 11.11° C | 96% | 1009.7 hPa | 0 mm | - | 48 W/m² | - |
| 1777477938 | 11.11° C | 96% | 1009.3 hPa | 0 mm | - | 64 W/m² | - |
| 1777477633 | 11.67° C | 96% | 1009.4 hPa | 0 mm | - | 63 W/m² | - |
| 1777477467 | 11.67° C | 96% | 1009.5 hPa | 0 mm | - | 88 W/m² | - |
| 1777477033 | 11.67° C | 96% | 1009.4 hPa | 0 mm | - | 105 W/m² | - |
| 1777476864 | 11.67° C | 96% | 1009.4 hPa | 0.25 mm | - | 193 W/m² | - |
| 1777476436 | 11.67° C | 97% | 1009.4 hPa | 0.25 mm | - | 153 W/m² | - |
| 1777476138 | 11.67° C | 97% | 1009.7 hPa | 0.25 mm | - | 170 W/m² | - |
| 1777475948 | 11.67° C | 97% | 1009.7 hPa | 0.25 mm | - | 103 W/m² | - |
| 1777475664 | 11.67° C | 97% | 1009.5 hPa | 0.25 mm | - | 200 W/m² | - |
| 1777475232 | 11.67° C | 97% | 1009.7 hPa | 0.25 mm | - | 218 W/m² | - |
| 1777474938 | 11.11° C | 97% | 1010.1 hPa | 0.25 mm | - | 121 W/m² | - |
| 1777474633 | 11.67° C | 97% | 1010.1 hPa | 0.51 mm | - | 88 W/m² | - |
| 1777474338 | 11.11° C | 97% | 1010.1 hPa | 0.51 mm | - | 70 W/m² | - |
| 1777474033 | 11.11° C | 97% | 1010.3 hPa | 0.51 mm | - | 59 W/m² | - |
| 1777473866 | 11.11° C | 97% | 1010.2 hPa | 0.76 mm | - | 73 W/m² | - |
| 1777473433 | 11.11° C | 97% | 1010.4 hPa | 0.76 mm | - | 65 W/m² | - |
| 1777473139 | 11.11° C | 97% | 1010.5 hPa | 0.51 mm | - | 69 W/m² | - |
| 1777472832 | 11.11° C | 97% | 1010.2 hPa | 0.51 mm | - | 48 W/m² | - |
* Rain latest hour (hover to see other rain measurements)
** Current wind speed in m/s (hover to see current wind gust speed)